QPF
0.00 0.00 0.01 0.04 0.07 0.13 0.06 0.10 0.08 0.01 0.03 0.01 0.00 0.00 0.00 0.01 0.03 0.04 0.00 0.00 0.00 0.00 0.00 0.00 0.01 0.00 0.00 0.00 0.00 0.00 0.00 0.00 0.00 0.00 0.00 0.00 0.00 0.00 0.00 0.00 0.00 0.00 0.00 0.00 0.01 0.01 0.00 0.00 0.00
0.00 0.01 0.04 0.16 0.07 0.03 0.05 0.10 0.07 0.03 0.01 0.00 0.00 0.00 0.00 0.02 0.06 0.00 0.00 0.00 0.00 0.00 0.00 0.00 0.01 0.00 0.00 0.00 0.00 0.00 0.00 0.00 0.00 0.00 0.01 0.02 0.00 0.00 0.00 0.00 0.01 0.01 0.00 0.00 0.01 0.00 0.00 0.00 0.00
0.00 0.02 0.14 0.16 0.11 0.01 0.05 0.10 0.05 0.03 0.00 0.00 0.01 0.01 0.01 0.01 0.00 0.00 0.00 0.00 0.00 0.00 0.00 0.00 0.00 0.00 0.00 0.00 0.01 0.00 0.00 0.00 0.02 0.00 0.04 0.01 0.00 0.00 0.00 0.00 0.00 0.00 0.00 0.01 0.02 0.00 0.00 0.00 0.00
0.01 0.08 0.18 0.21 0.05 0.01 0.02 0.06 0.03 0.03 0.03 0.01 0.02 0.01 0.00 0.00 0.00 0.00 0.00 0.00 0.00 0.00 0.00 0.00 0.00 0.00 0.00 0.01 0.01 0.00 0.00 0.00 0.00 0.00 0.01 0.00 0.00 0.00 0.00 0.00 0.00 0.00 0.00 0.00 0.00 0.00 0.00 0.00 0.00
0.01 0.06 0.18 0.16 0.02 0.04 0.07 0.04 0.02 0.04 0.00 0.00 0.00 0.00 0.00 0.00 0.00 0.00 0.00 0.00 0.00 0.00 0.00 0.00 0.02 0.02 0.01 0.01 0.00 0.00 0.00 0.00 0.00 0.00 0.00 0.01 0.00 0.00 0.00 0.01 0.00 0.00 0.00 0.00 0.00 0.00 0.00 0.00 0.00
0.00 0.08 0.24 0.08 0.03 0.10 0.06 0.05 0.04 0.04 0.01 0.03 0.00 0.00 0.00 0.00 0.00 0.00 0.00 0.00 0.00 0.00 0.00 0.00 0.01 0.01 0.01 0.00 0.00 0.00 0.00 0.00 0.00 0.00 0.00 0.00 0.00 0.00 0.00 0.00 0.00 0.00 0.00 0.00 0.00 0.00 0.00 0.00 0.00
0.00 0.03 0.09 0.10 0.07 0.15 0.12 0.06 0.03 0.01 0.01 0.01 0.00 0.00 0.00 0.00 0.00 0.00 0.00 0.00 0.00 0.00 0.00 0.00 0.00 0.00 0.00 0.00 0.00 0.00 0.00 0.00 0.00 0.00 0.00 0.00 0.00 0.00 0.00 0.00 0.00 0.00 0.00 0.00 0.00 0.00 0.00 0.00 0.00
0.00 0.00 0.01 0.08 0.09 0.12 0.14 0.14 0.06 0.03 0.01 0.02 0.00 0.00 0.00 0.00 0.00 0.00 0.00 0.00 0.00 0.00 0.00 0.00 0.00 0.00 0.00 0.00 0.00 0.00 0.00 0.00 0.00 0.00 0.00 0.03 0.02 0.00 0.00 0.00 0.00 0.00 0.00 0.00 0.00 0.00 0.00 0.00 0.01
0.00 0.00 0.01 0.07 0.07 0.04 0.09 0.19 0.08 0.04 0.04 0.02 0.03 0.01 0.00 0.00 0.00 0.00 0.00 0.00 0.00 0.00 0.00 0.00 0.00 0.00 0.00 0.00 0.00 0.00 0.00 0.00 0.01 0.01 0.03 0.09 0.05 0.00 0.00 0.00 0.00 0.00 0.00 0.00 0.00 0.00 0.00 0.01 0.00
0.00 0.00 0.00 0.02 0.04 0.11 0.04 0.16 0.17 0.06 0.02 0.01 0.03 0.00 0.00 0.00 0.00 0.00 0.00 0.00 0.00 0.00 0.00 0.00 0.00 0.00 0.00 0.00 0.00 0.00 0.00 0.00 0.05 0.08 0.07 0.10 0.08 0.02 0.00 0.00 0.00 0.00 0.00 0.00 0.00 0.01 0.00 0.01 0.01
0.00 0.00 0.00 0.00 0.04 0.13 0.04 0.11 0.05 0.10 0.02 0.01 0.04 0.00 0.00 0.00 0.00 0.00 0.00 0.00 0.00 0.00 0.00 0.00 0.00 0.00 0.00 0.00 0.00 0.00 0.00 0.00 0.01 0.01 0.01 0.07 0.03 0.00 0.00 0.01 0.02 0.01 0.05 0.03 0.09 0.03 0.00 0.00 0.04
0.00 0.00 0.00 0.00 0.01 0.09 0.09 0.07 0.07 0.18 0.07 0.09 0.04 0.00 0.00 0.00 0.00 0.00 0.00 0.00 0.00 0.00 0.00 0.00 0.00 0.00 0.00 0.00 0.00 0.00 0.00 0.01 0.00 0.00 0.02 0.07 0.07 0.03 0.05 0.15 0.16 0.13 0.24 0.04 0.05 0.17 0.05 0.01 0.03
0.00 0.00 0.00 0.00 0.00 0.02 0.02 0.02 0.06 0.07 0.08 0.11 0.05 0.00 0.00 0.00 0.00 0.00 0.00 0.00 0.00 0.00 0.00 0.00 0.00 0.00 0.00 0.00 0.00 0.00 0.00 0.01 0.00 0.00 0.03 0.06 0.10 0.03 0.03 0.07 0.11 0.03 0.19 0.14 0.11 0.18 0.10 0.07 0.03
0.00 0.00 0.00 0.00 0.00 0.01 0.01 0.02 0.03 0.03 0.06 0.05 0.03 0.00 0.00 0.00 0.00 0.00 0.00 0.00 0.00 0.00 0.00 0.00 0.00 0.01 0.00 0.00 0.00 0.00 0.00 0.01 0.00 0.00 0.05 0.10 0.05 0.02 0.04 0.08 0.03 0.02 0.11 0.19 0.08 0.07 0.07 0.08 0.01
0.00 0.00 0.00 0.00 0.00 0.00 0.01 0.03 0.03 0.03 0.06 0.03 0.02 0.00 0.00 0.00 0.00 0.00 0.00 0.00 0.00 0.00 0.00 0.00 0.00 0.00 0.00 0.00 0.00 0.00 0.00 0.01 0.00 0.00 0.01 0.04 0.09 0.05 0.03 0.06 0.08 0.04 0.09 0.17 0.15 0.03 0.02 0.00 0.01
0.00 0.00 0.00 0.00 0.00 0.00 0.00 0.13 0.07 0.07 0.02 0.03 0.04 0.01 0.00 0.00 0.00 0.00 0.00 0.00 0.00 0.00 0.00 0.00 0.00 0.00 0.00 0.00 0.00 0.00 0.01 0.00 0.00 0.00 0.00 0.01 0.04 0.08 0.05 0.07 0.09 0.08 0.10 0.06 0.13 0.01 0.02 0.00 0.00
0.00 0.00 0.00 0.00 0.00 0.00 0.01 0.04 0.05 0.06 0.09 0.13 0.08 0.01 0.00 0.00 0.00 0.00 0.00 0.00 0.00 0.00 0.00 0.00 0.00 0.00 0.00 0.00 0.00 0.00 0.00 0.00 0.00 0.00 0.00 0.00 0.03 0.03 0.01 0.01 0.06 0.09 0.03 0.02 0.01 0.00 0.00 0.00 0.00
0.00 0.00 0.00 0.00 0.00 0.00 0.00 0.01 0.01 0.01 0.03 0.15 0.15 0.05 0.00 0.00 0.00 0.00 0.00 0.00 0.00 0.00 0.00 0.00 0.00 0.00 0.00 0.00 0.00 0.00 0.00 0.00 0.00 0.00 0.00 0.00 0.02 0.00 0.01 0.03 0.04 0.04 0.00 0.00 0.00 0.00 0.00 0.00 0.00
0.00 0.00 0.00 0.00 0.00 0.00 0.00 0.00 0.00 0.00 0.01 0.03 0.06 0.03 0.02 0.00 0.00 0.00 0.00 0.00 0.00 0.00 0.00 0.00 0.00 0.00 0.00 0.00 0.00 0.00 0.00 0.00 0.00 0.00 0.00 0.00 0.00 0.01 0.03 0.04 0.03 0.04 0.01 0.00 0.01 0.01 0.00 0.00 0.00
0.00 0.00 0.00 0.00 0.00 0.00 0.00 0.00 0.00 0.00 0.00 0.01 0.05 0.01 0.01 0.00 0.00 0.00 0.00 0.00 0.00 0.00 0.00 0.00 0.00 0.00 0.00 0.00 0.00 0.00 0.00 0.00 0.00 0.00 0.01 0.00 0.00 0.00 0.00 0.01 0.03 0.04 0.02 0.00 0.00 0.00 0.00 0.00 0.00
0.00 0.00 0.00 0.00 0.00 0.00 0.00 0.00 0.00 0.00 0.00 0.01 0.05 0.04 0.06 0.01 0.00 0.00 0.00 0.00 0.00 0.00 0.00 0.00 0.00 0.00 0.00 0.00 0.00 0.00 0.00 0.00 0.00 0.00 0.00 0.00 0.00 0.00 0.00 0.01 0.01 0.03 0.01 0.00 0.00 0.00 0.00 0.00 0.00
0.00 0.00 0.00 0.00 0.00 0.00 0.00 0.00 0.00 0.00 0.00 0.01 0.05 0.12 0.06 0.04 0.00 0.00 0.00 0.00 0.00 0.00 0.00 0.00 0.00 0.00 0.00 0.00 0.00 0.00 0.00 0.00 0.00 0.00 0.00 0.00 0.00 0.00 0.00 0.00 0.00 0.01 0.00 0.00 0.00 0.00 0.00 0.00 0.00
0.00 0.00 0.00 0.00 0.00 0.00 0.00 0.00 0.00 0.00 0.00 0.00 0.02 0.12 0.12 0.04 0.02 0.00 0.00 0.00 0.00 0.00 0.00 0.00 0.00 0.00 0.00 0.00 0.00 0.00 0.00 0.00 0.00 0.00 0.00 0.00 0.00 0.00 0.00 0.00 0.00 0.00 0.00 0.00 0.00 0.01 0.00 0.01 0.00
0.00 0.00 0.00 0.00 0.00 0.00 0.00 0.00 0.00 0.00 0.00 0.00 0.00 0.02 0.04 0.02 0.02 0.00 0.00 0.00 0.00 0.00 0.00 0.00 0.00 0.00 0.00 0.00 0.00 0.00 0.00 0.00 0.00 0.00 0.00 0.00 0.00 0.00 0.00 0.00 0.00 0.00 0.00 0.00 0.00 0.01 0.00 0.00 0.00
0.00 0.00 0.00 0.00 0.00 0.00 0.00 0.00 0.00 0.00 0.00 0.00 0.00 0.00 0.01 0.01 0.00 0.01 0.00 0.00 0.00 0.00 0.00 0.00 0.00 0.00 0.00 0.00 0.00 0.00 0.00 0.00 0.00 0.00 0.00 0.00 0.00 0.00 0.00 0.00 0.00 0.00 0.00 0.00 0.00 0.00 0.00 0.00 0.00
0.00 0.00 0.00 0.00 0.00 0.00 0.00 0.00 0.00 0.00 0.00 0.00 0.00 0.00 0.00 0.02 0.01 0.00 0.00 0.00 0.00 0.00 0.00 0.00 0.00 0.00 0.00 0.00 0.00 0.00 0.00 0.00 0.00 0.00 0.00 0.00 0.00 0.00 0.00 0.00 0.00 0.00 0.00 0.00 0.00 0.00 0.00 0.00 0.00
0.00 0.00 0.00 0.00 0.00 0.00 0.00 0.00 0.00 0.00 0.00 0.00 0.00 0.00 0.00 0.03 0.07 0.04 0.00 0.00 0.00 0.00 0.00 0.00 0.00 0.00 0.00 0.00 0.00 0.00 0.00 0.00 0.00 0.00 0.00 0.00 0.00 0.00 0.00 0.00 0.00 0.00 0.00 0.00 0.00 0.00 0.00 0.00 0.00
0.00 0.00 0.00 0.00 0.00 0.00 0.00 0.00 0.00 0.00 0.00 0.00 0.00 0.00 0.00 0.01 0.02 0.04 0.03 0.00 0.00 0.00 0.00 0.00 0.00 0.00 0.00 0.00 0.00 0.00 0.00 0.00 0.00 0.00 0.00 0.00 0.00 0.00 0.00 0.00 0.00 0.00 0.00 0.00 0.00 0.00 0.00 0.00 0.00
0.00 0.00 0.00 0.00 0.00 0.00 0.00 0.00 0.00 0.00 0.00 0.00 0.00 0.00 0.00 0.00 0.00 0.02 0.04 0.01 0.00 0.00 0.00 0.00 0.00 0.00 0.00 0.00 0.00 0.00 0.00 0.00 0.00 0.00 0.00 0.00 0.00 0.00 0.00 0.00 0.00 0.00 0.00 0.00 0.00 0.00 0.00 0.00 0.00
0.00 0.00 0.00 0.00 0.00 0.00 0.00 0.00 0.00 0.00 0.00 0.00 0.00 0.00 0.00 0.00 0.00 0.01 0.04 0.04 0.03 0.01 0.00 0.00 0.00 0.00 0.00 0.00 0.00 0.00 0.00 0.00 0.00 0.00 0.00 0.00 0.00 0.00 0.00 0.00 0.00 0.00 0.00 0.00 0.00 0.00 0.00 0.00 0.00
MSLP
1010.90 1011.27 1011.54 1011.70 1012.12 1011.33 1010.22 1009.00 1008.00 1005.51 1005.54 1005.26 1006.08 1006.64 1007.78 1008.97 1009.56 1011.71 1012.35 1012.82 1013.45 1014.32 1014.88 1015.19 1015.53 1015.76 1015.96 1016.14 1016.35 1016.62 1016.88 1017.01 1017.27 1017.51 1017.62 1017.72 1017.86 1018.02 1018.09 1018.05 1018.10 1018.10 1018.13 1018.22 1018.32 1018.37 1018.46 1018.60 1018.62
1010.50 1010.93 1011.34 1011.33 1011.66 1011.24 1009.89 1008.34 1006.87 1005.32 1005.08 1005.56 1006.31 1006.89 1007.92 1009.70 1009.81 1011.12 1012.08 1012.74 1013.22 1014.17 1014.90 1015.35 1015.62 1015.84 1016.04 1016.29 1016.47 1016.73 1016.93 1017.16 1017.38 1017.56 1017.59 1017.74 1017.88 1017.98 1017.99 1018.06 1018.12 1018.13 1018.20 1018.22 1018.41 1018.54 1018.61 1018.70 1018.78
1010.24 1010.27 1011.14 1010.79 1010.46 1010.99 1009.46 1007.56 1006.41 1005.12 1005.40 1005.61 1006.43 1007.36 1008.34 1009.79 1010.31 1010.86 1011.83 1012.56 1013.36 1014.24 1014.95 1015.44 1015.70 1015.97 1016.16 1016.38 1016.64 1016.86 1017.02 1017.28 1017.54 1017.60 1017.73 1017.82 1017.92 1018.02 1018.17 1018.25 1018.26 1018.34 1018.46 1018.48 1018.61 1018.69 1018.82 1018.92 1019.11
1010.18 1010.76 1010.79 1010.23 1010.19 1009.73 1008.36 1007.14 1006.15 1005.39 1005.60 1006.14 1006.89 1008.28 1009.41 1009.84 1010.07 1010.73 1011.81 1012.66 1013.41 1014.39 1015.07 1015.42 1015.74 1016.03 1016.26 1016.46 1016.68 1016.90 1017.14 1017.37 1017.54 1017.77 1017.88 1017.99 1018.11 1018.30 1018.46 1018.55 1018.62 1018.67 1018.74 1018.76 1018.73 1018.81 1018.93 1019.02 1019.36
1009.82 1010.40 1010.61 1009.32 1010.14 1009.32 1007.62 1006.72 1005.58 1005.23 1005.78 1006.50 1007.01 1009.14 1009.58 1010.26 1010.74 1011.29 1011.80 1012.80 1013.58 1014.51 1015.12 1015.52 1015.80 1016.08 1016.34 1016.57 1016.82 1016.95 1017.19 1017.43 1017.72 1017.90 1017.98 1018.24 1018.41 1018.64 1018.74 1018.81 1018.82 1018.88 1018.97 1019.04 1019.08 1019.14 1019.11 1019.13 1019.57
1009.56 1009.55 1009.76 1010.03 1009.54 1009.28 1008.10 1006.74 1005.71 1005.53 1005.95 1006.92 1007.71 1008.96 1010.02 1010.29 1010.81 1011.36 1011.82 1012.70 1013.50 1014.52 1015.15 1015.63 1016.02 1016.26 1016.44 1016.69 1016.94 1017.04 1017.25 1017.53 1017.76 1017.95 1018.16 1018.33 1018.53 1018.73 1018.82 1018.95 1019.01 1019.10 1019.21 1019.23 1019.28 1019.37 1019.32 1019.34 1019.70
1008.74 1008.88 1008.78 1009.38 1009.64 1008.80 1008.65 1007.44 1005.56 1006.06 1006.23 1007.37 1007.67 1008.76 1010.20 1010.21 1010.43 1010.88 1011.94 1012.77 1013.62 1014.28 1015.18 1015.76 1016.13 1016.36 1016.55 1016.82 1017.02 1017.18 1017.43 1017.68 1017.88 1018.02 1018.23 1018.39 1018.66 1018.73 1018.97 1019.22 1019.36 1019.41 1019.43 1019.48 1019.44 1019.43 1019.54 1019.65 1019.56
1007.35 1008.09 1007.67 1008.10 1008.61 1008.48 1006.86 1008.56 1006.36 1005.99 1006.60 1007.22 1007.58 1008.77 1009.65 1009.55 1010.00 1010.64 1011.75 1012.69 1013.63 1014.46 1015.18 1015.81 1016.22 1016.56 1016.82 1016.98 1017.07 1017.39 1017.66 1017.80 1017.98 1018.10 1018.45 1018.83 1018.96 1019.03 1019.33 1019.51 1019.48 1019.61 1019.78 1019.78 1019.76 1019.82 1020.03 1020.04 1020.05
1006.87 1007.40 1007.27 1007.56 1007.90 1008.73 1008.31 1008.90 1008.44 1006.13 1006.87 1007.35 1007.18 1007.57 1008.50 1009.11 1009.51 1010.64 1011.70 1012.95 1013.82 1014.52 1015.20 1015.74 1016.16 1016.67 1016.90 1017.07 1017.21 1017.48 1017.82 1017.88 1018.25 1018.40 1018.81 1018.96 1019.14 1019.21 1019.43 1019.57 1019.54 1019.66 1019.76 1019.56 1019.70 1019.88 1020.05 1020.22 1020.77
1006.12 1006.35 1006.06 1006.60 1007.44 1008.28 1008.87 1009.10 1007.84 1006.98 1006.58 1007.52 1007.72 1008.29 1008.75 1009.27 1009.51 1010.35 1011.68 1012.61 1013.51 1014.35 1014.92 1015.56 1015.93 1016.45 1016.74 1016.84 1017.27 1017.66 1017.94 1018.13 1018.33 1018.46 1018.67 1018.94 1019.28 1019.24 1019.21 1019.56 1019.35 1019.54 1019.70 1019.74 1020.02 1019.90 1020.19 1020.63 1021.14
1005.31 1004.83 1004.60 1004.78 1005.36 1007.19 1008.83 1009.20 1010.23 1009.38 1007.17 1007.02 1007.77 1008.01 1008.72 1009.18 1009.40 1010.29 1011.48 1011.95 1012.79 1013.61 1014.32 1015.08 1015.49 1016.01 1016.42 1016.73 1017.27 1017.62 1017.87 1018.12 1018.24 1018.51 1018.79 1019.08 1019.30 1019.24 1019.42 1019.95 1019.74 1019.72 1019.64 1020.16 1021.24 1020.92 1020.70 1021.11 1021.53
1004.45 1003.74 1003.32 1002.98 1003.95 1006.24 1007.96 1008.84 1009.37 1009.78 1008.88 1006.83 1006.94 1007.36 1008.40 1008.75 1009.22 1010.24 1011.03 1011.66 1012.38 1013.28 1013.81 1014.57 1014.99 1015.61 1015.98 1016.56 1016.97 1017.20 1017.63 1018.09 1018.07 1018.37 1018.58 1019.08 1019.53 1019.31 1019.76 1020.32 1020.46 1020.11 1019.58 1020.66 1020.37 1020.98 1021.98 1021.64 1021.92
1003.56 1002.92 1002.36 1001.92 1002.94 1003.90 1006.35 1007.60 1008.58 1008.06 1008.39 1007.73 1007.64 1007.80 1008.24 1008.75 1009.26 1009.89 1010.76 1011.38 1012.03 1012.86 1013.66 1014.38 1015.00 1015.46 1015.73 1016.50 1016.84 1017.13 1017.50 1017.84 1017.87 1018.04 1018.45 1018.70 1019.31 1019.28 1019.72 1020.16 1020.51 1020.49 1020.12 1020.54 1021.41 1022.07 1021.64 1021.34 1020.96
1002.86 1002.35 1001.80 1001.66 1002.06 1002.46 1004.66 1006.79 1008.43 1007.91 1007.88 1008.23 1007.78 1008.10 1008.13 1008.59 1009.08 1009.61 1010.52 1011.24 1011.96 1012.74 1013.57 1014.27 1014.72 1015.10 1015.69 1016.28 1016.33 1016.88 1017.30 1017.63 1017.66 1018.12 1018.15 1018.63 1019.02 1019.20 1019.97 1020.02 1020.08 1020.64 1020.80 1020.93 1020.96 1021.65 1021.50 1021.43 1020.76
1002.69 1002.42 1001.86 1001.50 1001.44 1001.94 1003.40 1006.78 1007.71 1008.08 1007.98 1008.59 1008.28 1008.04 1008.57 1008.68 1009.14 1009.53 1010.15 1010.84 1011.61 1012.84 1013.38 1014.09 1014.54 1014.91 1015.76 1015.96 1016.44 1016.62 1016.94 1017.06 1017.55 1017.90 1018.25 1018.75 1019.26 1019.05 1019.31 1019.46 1020.06 1020.58 1020.61 1021.13 1021.29 1020.75 1021.06 1021.28 1020.70
1003.10 1002.82 1002.44 1001.69 1001.46 1001.41 1002.86 1005.78 1008.51 1007.99 1008.54 1008.97 1009.32 1008.86 1008.96 1008.87 1009.20 1009.35 1009.99 1010.70 1011.52 1012.72 1013.41 1013.85 1014.56 1015.25 1015.74 1016.02 1016.37 1016.72 1016.89 1016.92 1017.23 1017.53 1018.06 1018.24 1018.76 1018.81 1019.40 1019.45 1019.77 1020.04 1021.06 1020.71 1020.51 1020.36 1020.64 1020.97 1021.06
1003.87 1003.68 1002.90 1002.09 1001.22 1001.37 1002.22 1006.71 1008.62 1007.98 1008.83 1010.25 1010.39 1009.96 1009.64 1009.24 1009.14 1009.21 1009.76 1010.60 1011.42 1012.43 1013.25 1013.77 1014.41 1015.14 1015.66 1015.98 1016.14 1016.43 1016.81 1017.00 1017.19 1017.44 1017.81 1018.00 1018.44 1018.90 1019.14 1019.36 1019.74 1019.81 1020.06 1020.28 1020.37 1020.74 1020.64 1020.83 1020.86
1004.62 1003.72 1002.78 1001.97 1001.05 1001.19 1002.26 1005.30 1008.37 1009.36 1009.23 1009.46 1012.01 1011.24 1009.90 1009.62 1009.02 1008.92 1009.64 1010.41 1011.18 1012.23 1012.90 1013.56 1014.36 1015.03 1015.69 1016.08 1016.34 1016.63 1017.09 1016.98 1017.34 1017.36 1017.68 1017.89 1018.36 1018.58 1018.94 1019.01 1019.36 1019.33 1019.55 1019.86 1020.11 1020.44 1020.54 1020.58 1020.71
1004.28 1003.64 1002.93 1001.49 1000.46 1000.77 1001.94 1004.56 1006.66 1008.77 1009.44 1009.76 1010.88 1011.20 1010.23 1009.51 1009.13 1008.88 1009.46 1010.22 1011.10 1011.90 1012.61 1013.35 1014.31 1015.10 1015.65 1016.13 1016.56 1016.92 1017.36 1017.11 1017.34 1017.31 1017.52 1017.83 1018.22 1018.50 1018.74 1019.01 1019.24 1019.61 1019.77 1020.08 1020.30 1020.50 1020.70 1020.73 1020.78
1003.97 1003.43 1002.52 1001.20 1000.27 1000.48 1001.52 1003.80 1005.40 1006.70 1007.78 1008.18 1008.00 1009.13 1009.66 1009.00 1009.09 1008.90 1009.35 1009.94 1010.68 1011.50 1012.38 1013.12 1013.98 1014.90 1015.43 1015.89 1016.32 1016.68 1016.87 1016.99 1017.05 1017.15 1017.41 1017.60 1017.87 1018.22 1018.59 1018.84 1019.19 1019.37 1019.70 1019.80 1020.01 1020.51 1020.80 1020.74 1020.89
1003.36 1003.06 1002.39 1001.84 1000.74 1000.67 1001.32 1004.13 1005.33 1006.44 1007.10 1007.92 1007.41 1008.36 1009.58 1008.20 1008.69 1008.76 1009.04 1009.63 1010.38 1011.14 1011.93 1012.70 1013.55 1014.47 1015.11 1015.57 1016.12 1016.58 1016.70 1016.88 1017.34 1017.57 1017.68 1017.64 1017.70 1018.13 1018.40 1018.78 1018.88 1019.09 1019.34 1019.72 1019.96 1020.22 1020.56 1020.94 1020.96
1002.83 1002.42 1002.15 1001.95 1001.97 1002.25 1001.76 1003.97 1005.07 1006.07 1006.72 1007.43 1008.09 1008.17 1009.38 1010.34 1008.07 1008.38 1008.64 1009.33 1009.86 1010.66 1011.44 1012.28 1013.10 1014.00 1014.69 1015.18 1015.69 1016.30 1016.54 1016.84 1016.96 1017.22 1017.49 1017.50 1017.44 1018.00 1018.26 1018.61 1018.79 1018.97 1019.10 1019.50 1019.68 1019.78 1020.19 1020.60 1020.92
1002.47 1002.32 1002.46 1002.66 1002.61 1002.95 1002.26 1003.81 1003.30 1004.95 1006.65 1007.03 1006.77 1007.54 1008.93 1008.89 1008.82 1007.41 1007.86 1008.46 1009.28 1010.26 1010.96 1011.77 1012.62 1013.56 1014.18 1014.75 1015.14 1015.83 1016.29 1016.40 1016.48 1016.87 1017.28 1017.35 1017.36 1017.67 1018.03 1018.41 1018.66 1019.01 1019.24 1019.54 1019.78 1019.77 1020.10 1020.33 1020.62
1002.09 1002.57 1003.02 1003.34 1003.85 1003.89 1003.17 1003.86 1003.09 1004.47 1003.98 1005.99 1006.84 1006.22 1007.09 1008.04 1008.30 1006.51 1006.90 1007.88 1008.83 1009.82 1010.64 1011.45 1012.20 1013.00 1013.66 1014.27 1014.71 1015.24 1015.77 1016.10 1016.40 1016.63 1017.18 1017.30 1017.52 1017.62 1017.84 1018.18 1018.48 1018.79 1019.06 1019.47 1019.59 1019.75 1020.06 1020.23 1020.32
1002.38 1003.44 1004.32 1004.81 1004.96 1004.20 1003.89 1003.27 1002.51 1001.54 1002.35 1003.19 1004.43 1005.63 1004.04 1005.42 1006.44 1006.15 1006.51 1007.08 1007.99 1009.00 1009.93 1010.78 1011.51 1012.29 1012.98 1013.70 1014.22 1014.67 1014.96 1015.53 1016.08 1016.28 1016.48 1016.92 1017.47 1017.57 1017.79 1017.99 1018.52 1018.75 1018.87 1019.09 1019.33 1019.70 1019.95 1020.10 1020.17
1003.03 1003.78 1004.80 1005.35 1005.42 1004.81 1004.19 1002.77 1000.89 1000.48 1001.10 1002.38 1003.13 1003.29 1003.64 1003.14 1004.30 1004.88 1005.40 1006.06 1007.01 1008.11 1009.11 1009.99 1010.81 1011.52 1012.18 1012.92 1013.61 1014.17 1014.42 1014.92 1015.48 1015.85 1016.07 1016.48 1016.84 1017.03 1017.10 1017.60 1018.00 1018.38 1018.64 1018.91 1019.12 1019.54 1019.72 1019.91 1020.11
1003.40 1003.63 1004.17 1005.02 1005.42 1005.01 1003.95 1001.94 1000.30 1000.02 999.91 1000.95 1002.36 1003.36 1003.34 1003.92 1003.70 1003.89 1004.10 1004.88 1006.20 1007.31 1008.09 1008.88 1010.06 1010.90 1011.60 1012.19 1013.01 1013.71 1014.04 1014.34 1014.95 1015.30 1015.71 1015.91 1016.24 1016.53 1016.82 1017.15 1017.74 1018.01 1018.30 1018.60 1018.93 1019.40 1019.61 1019.76 1019.97
1003.06 1003.76 1004.56 1004.96 1005.70 1005.17 1004.05 1002.32 1000.74 999.95 999.59 999.80 1000.39 1001.32 1001.71 1003.13 1003.01 1003.49 1005.64 1005.22 1004.83 1005.98 1007.60 1008.74 1009.57 1010.22 1010.84 1011.60 1012.33 1012.97 1013.56 1013.84 1014.23 1014.74 1015.21 1015.43 1015.66 1016.11 1016.33 1016.87 1017.34 1017.86 1018.10 1018.26 1018.89 1019.22 1019.46 1019.70 1019.85
1005.24 1004.56 1004.99 1005.60 1005.94 1005.38 1004.63 1002.56 1000.52 999.97 1000.20 999.58 998.16 999.06 1000.06 1001.60 1002.00 1003.25 1004.86 1005.36 1005.15 1005.00 1006.56 1008.02 1009.04 1009.65 1010.32 1010.87 1011.60 1012.38 1013.00 1013.61 1014.08 1014.34 1014.70 1014.99 1015.21 1015.63 1016.03 1016.52 1017.02 1017.60 1017.98 1018.27 1018.65 1018.98 1019.26 1019.54 1019.73
1006.79 1006.36 1005.74 1006.10 1006.26 1005.38 1004.51 1002.80 999.82 1000.56 1000.33 999.57 997.41 997.67 998.55 999.95 1000.74 1002.12 1002.14 1003.85 1005.91 1006.12 1005.40 1006.64 1007.86 1008.62 1009.17 1010.03 1010.78 1011.52 1012.28 1013.00 1013.47 1013.96 1014.20 1014.52 1014.87 1015.34 1015.80 1016.18 1016.65 1017.18 1017.58 1017.89 1018.24 1018.61 1018.88 1019.24 1019.47
Thickness
5791 5789 5789 5781 5762 5762 5752 5754 5783 5806 5804 5824 5821 5812 5801 5798 5791 5761 5788 5787 5784 5776 5771 5769 5767 5765 5765 5764 5763 5761 5759 5757 5755 5754 5753 5751 5749 5747 5747 5747 5748 5749 5750 5750 5749 5749 5748 5747 5746
5795 5794 5787 5775 5755 5740 5748 5775 5790 5811 5822 5825 5821 5815 5801 5781 5799 5790 5786 5789 5785 5778 5772 5769 5768 5767 5766 5765 5764 5763 5761 5759 5757 5756 5755 5753 5752 5750 5750 5749 5749 5749 5750 5751 5749 5748 5748 5747 5747
5800 5801 5773 5763 5753 5743 5753 5784 5790 5822 5825 5821 5813 5814 5803 5785 5798 5796 5797 5793 5785 5778 5773 5770 5768 5768 5767 5767 5766 5764 5763 5761 5758 5757 5756 5756 5754 5752 5750 5748 5748 5748 5749 5750 5749 5749 5748 5747 5746
5796 5785 5780 5754 5747 5772 5783 5795 5812 5817 5821 5821 5811 5790 5801 5808 5803 5805 5800 5795 5788 5779 5774 5771 5770 5769 5768 5768 5767 5765 5764 5762 5760 5757 5757 5756 5755 5752 5749 5747 5746 5747 5747 5748 5748 5748 5748 5748 5746
5798 5781 5762 5744 5756 5773 5798 5805 5823 5818 5815 5810 5809 5782 5788 5802 5807 5805 5802 5794 5786 5781 5776 5772 5771 5770 5769 5768 5767 5766 5765 5763 5760 5758 5757 5755 5752 5750 5748 5747 5748 5747 5746 5747 5747 5747 5748 5749 5745
5780 5786 5763 5742 5754 5777 5796 5806 5820 5818 5818 5807 5798 5788 5785 5807 5804 5803 5804 5797 5790 5782 5777 5773 5771 5770 5770 5768 5768 5768 5767 5763 5761 5760 5759 5756 5755 5753 5753 5750 5748 5748 5746 5746 5747 5748 5749 5749 5745
5781 5776 5769 5759 5759 5767 5780 5805 5820 5810 5813 5799 5809 5787 5788 5799 5809 5811 5803 5798 5791 5785 5778 5775 5773 5771 5770 5769 5768 5768 5767 5765 5763 5762 5760 5759 5756 5757 5754 5749 5747 5746 5746 5746 5749 5750 5750 5749 5749
5800 5786 5782 5782 5775 5767 5774 5788 5816 5819 5808 5821 5816 5786 5781 5804 5812 5815 5806 5799 5792 5786 5780 5777 5774 5772 5770 5770 5769 5768 5766 5765 5763 5763 5760 5756 5755 5754 5750 5748 5748 5745 5742 5742 5744 5746 5746 5747 5749
5813 5777 5771 5778 5784 5777 5793 5781 5798 5829 5811 5813 5818 5815 5813 5816 5817 5810 5803 5794 5789 5786 5782 5778 5776 5773 5772 5772 5770 5768 5765 5766 5763 5763 5759 5758 5756 5754 5752 5748 5751 5748 5745 5750 5751 5748 5746 5744 5741
5797 5780 5787 5798 5793 5781 5790 5783 5775 5795 5817 5806 5806 5816 5816 5813 5811 5807 5798 5791 5788 5785 5785 5783 5780 5777 5775 5774 5772 5767 5765 5767 5765 5766 5763 5759 5756 5756 5756 5751 5753 5750 5749 5751 5750 5752 5746 5739 5738
5801 5788 5809 5814 5811 5804 5787 5778 5777 5782 5806 5814 5800 5809 5810 5809 5810 5807 5801 5800 5796 5794 5792 5789 5786 5782 5779 5778 5774 5770 5769 5767 5768 5766 5763 5759 5758 5759 5757 5750 5752 5753 5754 5752 5742 5742 5744 5739 5739
5793 5815 5822 5830 5828 5805 5788 5790 5772 5778 5787 5823 5824 5822 5813 5811 5808 5806 5804 5802 5801 5796 5796 5794 5791 5786 5785 5781 5778 5775 5773 5768 5770 5767 5766 5762 5760 5759 5755 5750 5749 5754 5760 5748 5748 5745 5734 5737 5737
5804 5817 5831 5841 5832 5822 5813 5795 5787 5792 5804 5817 5822 5817 5812 5809 5809 5811 5811 5809 5806 5799 5797 5796 5793 5790 5789 5783 5781 5778 5775 5773 5774 5773 5770 5768 5765 5763 5758 5754 5751 5749 5757 5752 5744 5736 5740 5739 5745
5816 5821 5828 5837 5839 5843 5811 5800 5786 5802 5813 5809 5814 5811 5815 5810 5809 5812 5808 5806 5805 5802 5799 5797 5796 5794 5790 5786 5786 5782 5779 5778 5777 5773 5774 5772 5770 5769 5761 5758 5757 5750 5748 5748 5749 5744 5744 5745 5752
5817 5802 5818 5828 5837 5837 5833 5785 5789 5805 5810 5803 5805 5812 5809 5810 5810 5810 5811 5808 5807 5801 5801 5798 5798 5796 5791 5789 5787 5786 5785 5786 5780 5778 5776 5772 5769 5772 5767 5767 5761 5754 5751 5747 5749 5755 5752 5750 5755
5794 5799 5780 5818 5829 5838 5829 5771 5780 5802 5802 5800 5795 5803 5806 5808 5807 5814 5815 5811 5809 5803 5799 5801 5800 5795 5792 5790 5788 5787 5788 5789 5787 5784 5779 5780 5777 5777 5772 5769 5766 5763 5752 5753 5756 5758 5759 5756 5757
5780 5756 5777 5796 5831 5829 5826 5763 5780 5795 5793 5780 5786 5791 5797 5804 5807 5813 5815 5813 5809 5804 5800 5800 5800 5796 5793 5790 5790 5790 5789 5788 5788 5789 5784 5784 5783 5778 5776 5774 5770 5768 5765 5764 5763 5760 5762 5760 5760
5749 5763 5778 5786 5818 5825 5816 5787 5772 5780 5785 5773 5762 5776 5794 5794 5805 5813 5814 5812 5812 5806 5804 5802 5800 5797 5795 5793 5791 5791 5788 5789 5789 5791 5789 5788 5783 5780 5779 5779 5777 5777 5774 5772 5769 5765 5765 5766 5766
5773 5772 5771 5797 5827 5821 5816 5788 5788 5781 5779 5769 5764 5775 5787 5794 5807 5814 5814 5813 5810 5807 5805 5803 5798 5797 5795 5792 5789 5788 5785 5789 5790 5792 5792 5790 5788 5786 5785 5784 5780 5776 5776 5773 5772 5770 5767 5767 5769
5768 5766 5773 5801 5825 5820 5816 5793 5798 5796 5790 5792 5797 5794 5793 5800 5805 5809 5813 5812 5811 5807 5806 5804 5800 5798 5797 5796 5795 5794 5793 5794 5795 5795 5796 5795 5792 5792 5790 5787 5783 5782 5780 5779 5778 5771 5768 5770 5772
5765 5759 5772 5778 5808 5816 5818 5777 5783 5794 5801 5796 5807 5805 5791 5807 5803 5808 5809 5811 5810 5807 5807 5805 5802 5800 5799 5800 5798 5797 5798 5797 5793 5793 5795 5795 5795 5794 5793 5790 5790 5788 5785 5780 5779 5777 5774 5767 5771
5742 5782 5787 5788 5777 5749 5807 5744 5771 5785 5788 5796 5794 5793 5792 5780 5812 5813 5811 5810 5812 5809 5810 5808 5805 5803 5801 5802 5800 5797 5795 5792 5798 5798 5798 5799 5799 5796 5795 5793 5792 5790 5788 5785 5784 5783 5780 5776 5770
5758 5781 5776 5777 5769 5765 5782 5751 5781 5790 5772 5782 5797 5796 5791 5792 5799 5820 5817 5815 5816 5812 5810 5810 5807 5804 5805 5804 5804 5800 5798 5800 5803 5803 5801 5802 5802 5800 5798 5796 5795 5791 5788 5786 5785 5785 5782 5782 5779
5779 5767 5763 5763 5750 5717 5763 5754 5772 5769 5798 5788 5790 5802 5802 5801 5801 5825 5828 5823 5817 5815 5812 5810 5808 5806 5807 5806 5806 5804 5802 5802 5802 5803 5800 5801 5802 5803 5801 5799 5798 5794 5792 5790 5788 5786 5785 5785 5784
5758 5737 5696 5696 5702 5720 5761 5750 5771 5809 5816 5809 5803 5798 5826 5819 5814 5824 5822 5826 5823 5817 5814 5812 5811 5807 5809 5808 5807 5807 5808 5806 5804 5805 5806 5804 5801 5802 5803 5801 5799 5796 5794 5792 5790 5788 5787 5787 5787
5735 5726 5691 5679 5689 5722 5752 5731 5778 5823 5827 5814 5812 5817 5823 5835 5831 5833 5829 5830 5828 5824 5820 5815 5813 5811 5812 5810 5809 5809 5811 5810 5808 5808 5809 5808 5808 5808 5808 5805 5803 5800 5797 5795 5793 5791 5790 5790 5789
5722 5708 5743 5711 5721 5711 5731 5761 5802 5818 5828 5822 5812 5806 5812 5817 5825 5830 5836 5834 5827 5827 5826 5823 5815 5814 5812 5812 5810 5809 5811 5813 5810 5811 5812 5813 5812 5812 5811 5808 5806 5803 5802 5799 5796 5794 5792 5791 5791
5722 5742 5698 5702 5675 5681 5713 5735 5751 5795 5809 5823 5823 5818 5825 5817 5819 5821 5802 5826 5835 5832 5825 5821 5817 5815 5815 5813 5813 5812 5812 5815 5814 5814 5812 5814 5816 5814 5814 5811 5809 5806 5804 5803 5799 5797 5796 5792 5792
5691 5699 5705 5702 5696 5687 5685 5717 5786 5797 5800 5811 5838 5838 5836 5824 5826 5817 5805 5814 5833 5835 5830 5820 5816 5815 5815 5815 5814 5812 5813 5813 5813 5814 5815 5815 5818 5817 5814 5813 5811 5807 5805 5805 5802 5800 5798 5794 5792
5684 5681 5693 5673 5676 5692 5690 5706 5811 5800 5800 5810 5842 5850 5845 5836 5835 5823 5835 5825 5810 5813 5834 5829 5822 5819 5820 5817 5815 5814 5813 5812 5813 5813 5815 5816 5816 5816 5813 5814 5812 5809 5808 5808 5806 5802 5802 5797 5794